Location: downtown San Diego
(32.7310°N, 117.1990°W)
Time: 15:14:31
(UTC-08:00)

Daily predictions for brighter satellites

Satellite Brightness Start Highest point End
(mag) Time Altitude Azimuth Time Altitude Azimuth Time Altitude Azimuth
MONITOR-E 4.3 17:57:34 10° SSE 18:00:29 49° ENE 18:03:25 10° N
MOS 1-B Rocket 4.1 17:54:29 10° SSE 18:01:03 63° ENE 18:06:49 10° N
Cosmos 1812 3.5 18:00:44 10° NNE 18:04:10 29° E 18:07:35 10° SE
NOSS 0 Rocket 4.1 17:58:40 10° NNW 18:04:54 87° WSW 18:11:07 10° SSE
Ariane Rocket 4.3 18:00:25 10° S 18:05:18 47° W 18:10:13 10° NNW
ALOS 2.2 18:01:41 10° SSE 18:06:20 79° ENE 18:11:02 10° N
Cosmos 1238 4.3 18:06:20 10° S 18:09:26 75° E 18:13:10 10° N
SKYMED 2 4.4 18:07:08 10° N 18:11:23 55° WNW 18:15:37 10° SSW
Cosmos 44 4.2 18:11:20 10° N 18:15:49 31° NE 18:20:28 10° ESE
CENTAUR R/B 2.4 18:10:23 10° SSW 18:16:07 76° ESE 18:22:40 10° NNE
Cosmos 2082 4.4 18:12:40 10° SSW 18:18:11 59° WNW 18:23:45 10° NNE
Cosmos 2333 Rocket 3.3 18:14:29 10° NNW 18:19:54 49° WSW 18:25:18 10° S
CZ-3C R/B 3.4 18:18:08 10° S 18:20:24 15° SE 18:24:27 10° ESE
Aureole 3 4.2 18:15:36 10° S 18:22:02 83° E 18:27:06 10° N
Cosmos 2056 Rocket 4.1 18:18:08 10° NNW 18:23:30 64° WSW 18:28:50 10° S
Meteor 1-25 Rocket 4.1 18:20:25 10° S 18:25:53 67° E 18:31:24 10° NNE
Cosmos 1437 Rocket 3.7 18:23:16 10° SSE 18:26:42 28° E 18:30:12 10° NNE
Lacrosse 5 2.0 18:21:50 10° NW 18:26:54 77° SW 18:31:55 10° SSE
SPOT 3 Rocket 3.5 18:22:36 10° SSE 18:27:46 78° ENE 18:32:59 10° N
Shenzhou-11 Module 3.0 18:26:35 10° WNW 18:29:28 43° SW 18:32:19 10° SE
Cosmos 1452 Rocket 3.6 18:24:35 10° N 18:29:43 52° ENE 18:34:48 10° SSE
Cosmos 158 Rocket 3.9 18:25:40 10° SSW 18:30:35 87° WNW 18:35:29 10° NNE
Cosmos 1048 Rocket 4.1 18:25:37 10° S 18:30:51 59° ESE 18:36:04 10° NNE
GPS 2-05 Rocket1 4.3 18:28:41 10° SSW 18:31:04 20° SSE 18:32:20 16° ESE
EO 1 Del DPAF 3.7 18:28:49 10° N 18:32:36 63° WNW 18:36:21 10° SSW
Iridium 4 Rocket 3.5 18:29:50 10° NNE 18:34:22 43° E 18:38:33 10° SSE
Gbstr 26 Del rocket 2.9 18:35:42 10° SSW 18:39:17 47° SE 18:41:21 22° ENE
COSMOS 2455 3.9 18:36:05 10° SSE 18:40:41 23° ESE 18:42:50 19° ENE
Cosmos 1378 Rocket 3.5 18:40:49 10° N 18:45:12 61° E 18:49:34 10° SSE
Tsikada Rocket 4.2 18:41:11 10° SSE 18:47:15 47° E 18:53:21 10° NNE
Cosmos 1782 Rocket 3.6 18:43:34 10° S 18:47:53 54° E 18:52:13 10° NNE
Sich 1 Rocket 3.5 18:45:03 10° S 18:49:33 79° E 18:54:03 10° N
Cosmos 1420 Rocket 4.0 18:45:00 10° N 18:50:15 65° ENE 18:55:31 10° SSE
FengYun 1-2 T 4.2 18:51:18 10° SSE 18:56:50 87° WSW 19:02:21 10° NNW
BREEZE-M DEB (TANK) 2.7 18:57:09 10° SW 18:59:44 79° SE 19:03:04 20° NE
OAO 2 Rocket 3.2 18:56:23 10° W 19:01:19 76° N 19:03:24 35° ENE
Okean 2 Rocket 3.1 19:01:25 10° SSE 19:05:38 50° E 19:09:54 10° NNE
Cosmos 1464 Rocket 4.1 19:01:49 10° N 19:07:56 77° W 19:14:04 10° S
SJ-6B 2.5 19:04:21 10° SSE 19:08:05 74° ENE 19:11:53 10° N
FREGAT/IRIS 3.7 19:05:24 10° S 19:08:14 45° W 19:11:06 10° NNW
Tiangong 2 1.2 19:07:28 10° NW 19:10:20 65° NNW 19:10:20 65° NNW
SeaSat 1 2.6 19:12:42 43° E 19:13:38 48° ENE 19:18:22 10° NNW
ARGOS Delta rocket 3.7 19:10:29 10° N 19:15:17 89° W 19:19:49 10° SSW
HJ-1C 3.8 19:12:43 10° S 19:16:05 63° W 19:19:29 10° NNW
Envisat 2.9 19:12:08 10° SSE 19:17:09 67° ENE 19:22:12 10° N
Thor Agena Rocket 3.8 19:18:55 10° N 19:23:56 65° WNW 19:28:54 10° SSW
Cosmos 44 Rocket 3.4 19:21:39 10° NNW 19:26:44 78° WSW 19:29:03 33° SSE
Okean 1 4.0 19:23:26 10° NNW 19:27:19 54° W 19:31:11 10° S
ERS-2 4.1 19:25:42 10° SSW 19:28:56 29° W 19:32:11 10° NW
SL-16 R/B 2.8 19:23:54 10° NNW 19:29:26 56° WSW 19:34:55 10° S
USA 215 4.0 19:24:42 11° NNE 19:30:38 48° NW 19:36:50 10° WSW
Sakura Rocket 4.3 19:27:01 10° WSW 19:32:54 63° S 19:34:53 47° ESE
Cosmos 494 Rocket 3.8 19:29:13 10° SSW 19:34:27 86° ESE 19:36:01 46° NNE
CZ-2D R/B 3.8 19:33:15 38° SSW 19:34:27 57° W 19:38:18 10° NNW
Meteor 1-13 Rocket 4.0 19:29:57 10° N 19:35:22 66° ENE 19:35:22 66° ENE
Cosmos 921 Rocket 3.3 19:32:09 10° NNW 19:36:38 67° WSW 19:37:34 51° SSW
Cosmos 1603 4.2 19:42:26 10° NNW 19:46:32 46° N 19:46:32 46° N
Resurs 01 Rocket 3.7 19:57:45 20° NNW 19:57:45 20° NNW 19:59:10 10° NNW
Cosmos 1634 Rocket 4.5 19:50:38 10° N 19:54:52 46° NNE 19:54:52 46° NNE
USA 267 4.4 20:01:52 28° NNE 20:01:52 28° NNE 20:06:09 10° NNW
Cosmos 2263 Rocket 3.4 19:58:10 10° SSW 20:00:56 31° SSW 20:00:56 31° SSW
CZ-4C R/B 4.1 20:04:06 10° NNW 20:08:03 28° NNE 20:08:03 28° NNE
COSMOS 2455 3.8 20:20:32 10° SW 20:26:07 44° WNW 20:26:07 44° WNW
